TimeAKDT,TemperatureF,Dew PointF,Humidity,Sea Level PressureIn,VisibilityMPH,Wind Direction,Wind SpeedMPH,Gust SpeedMPH,PrecipitationIn,Events,Conditions,WindDirDegrees,DateUTC
12:53 AM,1.0,-11.9,55,30.25,10.0,ESE,6.9,-,N/A,,Mostly Cloudy,110,2013-03-22 08:53:00
1:53 AM,3.0,-11.0,52,30.22,10.0,ESE,9.2,-,N/A,,Overcast,120,2013-03-22 09:53:00
2:53 AM,3.0,-9.9,55,30.22,10.0,SSE,5.8,-,N/A,,Overcast,160,2013-03-22 10:53:00
3:53 AM,1.9,-11.0,55,30.22,10.0,SE,4.6,-,N/A,,Overcast,140,2013-03-22 11:53:00
4:53 AM,1.9,-11.0,55,30.20,10.0,SE,3.5,-,N/A,,Overcast,140,2013-03-22 12:53:00
5:53 AM,1.9,-11.0,55,30.19,10.0,ESE,5.8,-,N/A,,Overcast,120,2013-03-22 13:53:00
6:53 AM,1.9,-11.0,55,30.19,10.0,Calm,Calm,-,N/A,,Overcast,0,2013-03-22 14:53:00
7:53 AM,3.9,-9.9,53,30.19,10.0,SE,4.6,-,N/A,,Overcast,130,2013-03-22 15:53:00
8:53 AM,5.0,-9.0,52,30.19,10.0,SE,5.8,-,N/A,,Mostly Cloudy,130,2013-03-22 16:53:00
9:53 AM,6.1,-9.9,48,30.19,10.0,ESE,6.9,-,N/A,,Mostly Cloudy,120,2013-03-22 17:53:00
10:53 AM,8.1,-9.0,46,30.18,10.0,SE,5.8,-,N/A,,Mostly Cloudy,130,2013-03-22 18:53:00
11:53 AM,10.0,-8.0,44,30.17,10.0,SE,8.1,-,N/A,,Mostly Cloudy,140,2013-03-22 19:53:00
12:53 PM,10.9,-8.0,42,30.17,10.0,ESE,11.5,-,N/A,,Mostly Cloudy,110,2013-03-22 20:53:00
1:53 PM,12.0,-6.0,44,30.15,10.0,ESE,11.5,-,N/A,,Mostly Cloudy,110,2013-03-22 21:53:00
2:53 PM,14.0,-5.1,43,30.11,10.0,ESE,11.5,-,N/A,,Mostly Cloudy,110,2013-03-22 22:53:00
3:53 PM,16.0,-5.1,39,30.11,10.0,ESE,6.9,-,N/A,,Mostly Cloudy,120,2013-03-22 23:53:00
4:53 PM,17.1,-2.0,43,30.08,10.0,East,6.9,-,N/A,,Mostly Cloudy,100,2013-03-23 00:53:00
5:53 PM,17.1,-2.0,43,30.06,10.0,ESE,6.9,-,N/A,,Overcast,120,2013-03-23 01:53:00
6:53 PM,17.1,-0.9,45,30.06,10.0,SE,3.5,-,N/A,,Mostly Cloudy,130,2013-03-23 02:53:00
7:53 PM,15.1,-2.0,47,30.03,10.0,SE,6.9,-,N/A,,Mostly Cloudy,140,2013-03-23 03:53:00
8:53 PM,12.9,-2.0,51,30.02,10.0,East,3.5,-,N/A,,Mostly Cloudy,90,2013-03-23 04:53:00
9:53 PM,14.0,-2.0,49,30.01,10.0,SE,3.5,-,N/A,,Mostly Cloudy,130,2013-03-23 05:53:00
10:53 PM,10.9,-2.0,56,29.98,10.0,SSE,5.8,-,N/A,,Mostly Cloudy,150,2013-03-23 06:53:00
11:53 PM,10.0,-2.9,56,29.96,10.0,SE,4.6,-,N/A,,Mostly Cloudy,140,2013-03-23 07:53:00